Location: Katowice
(50.2611°N, 19.0242°E)
Time: 10:44:32
(UTC+02:00)

A-11 Canister half - Pass Details

Date: 21 July 2019
Orbit: 1526 x 1683 km, 47.3° (Epoch: 23 August)

Event Time Altitude Azimuth Distance (km) Brightness Sun altitude
Rises 02:38:37 0° 284° (WNW) 4,845 11.5 -15.2°
Reaches altitude 10° 02:41:51 10° 280° (W) 3,836 10.9 -15.0°
Maximum altitude 02:51:09 53° 208° (SSW) 1,870 9.1 -14.3°
Drops below altitude 10° 03:00:10 10° 135° (SE) 3,716 10.9 -13.6°
Sets 03:03:15 0° 130° (SE) 4,685 11.5 -13.3°
